Location: Tamazert
(32.6352°N, 5.2072°W)
Time: 06:38:32
(UTC+00:00)

Vanguard 2 - Pass Details

Date: 08 October 2022
Orbit: 553 x 2933 km, 32.9° (Epoch: 26 November)

Event Time Altitude Azimuth Distance (km) Brightness Sun altitude
Rises 12:07:51 0° 253° (WSW) 3,916 11.3 51.4°
Reaches altitude 10° 12:10:06 10° 252° (WSW) 3,194 11.0 51.4°
Maximum altitude 12:18:26 82° 166° (SSE) 1,764 10.6 51.3°
Drops below altitude 10° 12:32:42 10° 81° (E) 5,191 11.7 50.9°
Sets 12:37:24 0° 81° (E) 6,459 12.1 50.8°
